Theta_e
362 363 363 364 363 363 360 360 363 362 363 359 360 359 358 359 359 358 359 359 357 357 355 351 353 351 349 347 348 349 350 352 352 351 352 351 356 360 356 354 355 357 358 359 360 359 360 361 360 359 359 359 359 359 357 356 356 355 355 356 356 356 356 357 357 357 357 356 356 356 355 354 353 353 354 355 355 355 355 354 354 354 354 354 353
361 362 362 362 362 364 363 361 360 362 361 360 361 358 357 358 359 359 358 358 356 355 352 349 347 346 348 346 346 345 349 348 350 349 352 352 354 358 356 355 356 357 357 358 358 358 359 359 360 359 359 359 359 358 358 357 357 356 356 356 355 355 356 356 356 357 357 357 356 356 356 355 354 354 354 354 354 355 354 355 354 354 354 354 354
362 363 364 362 363 364 362 363 361 363 363 361 362 361 359 358 360 357 356 355 352 352 351 347 347 347 348 347 347 347 348 350 347 348 348 350 352 356 358 355 356 357 358 357 358 358 358 359 360 360 358 359 359 359 359 357 356 357 356 356 355 355 355 355 355 356 357 357 356 357 357 356 356 356 355 354 354 354 354 354 354 354 354 354 354
365 367 365 363 363 364 364 364 364 363 364 362 361 360 358 359 361 360 359 359 353 351 351 346 348 347 347 347 347 345 346 345 342 343 346 348 351 353 354 354 358 357 356 357 358 358 359 358 358 359 359 359 359 359 359 358 357 357 357 356 356 355 355 355 355 356 356 356 356 357 357 357 356 356 356 356 356 355 354 354 354 354 355 355 355
364 367 367 365 365 366 364 365 365 365 365 366 364 363 360 360 359 359 358 354 350 349 351 347 347 348 346 346 345 345 347 346 346 344 344 344 348 349 351 353 354 359 356 356 355 357 359 360 358 358 359 358 358 359 358 359 359 358 358 357 356 355 355 355 355 356 356 356 356 357 357 357 357 356 356 357 356 356 355 355 355 355 355 355 355
368 369 368 367 366 366 366 364 364 367 366 368 362 361 359 360 358 356 350 349 347 349 346 347 346 346 347 348 348 349 347 346 346 345 344 346 348 349 349 349 352 353 357 357 356 355 357 359 359 358 357 358 358 358 358 359 359 359 358 358 358 356 355 355 355 356 356 356 356 356 357 358 358 358 357 357 356 356 356 355 355 356 355 355 356
372 371 369 367 364 363 364 365 367 368 365 363 363 362 361 358 354 352 350 347 347 349 349 347 346 347 348 348 348 348 349 347 348 347 347 350 349 348 349 349 349 351 352 351 357 354 355 357 358 358 358 359 358 359 358 358 359 358 358 358 358 357 356 356 356 356 356 355 356 357 357 357 358 358 358 358 357 357 356 356 356 356 356 356 356
372 371 369 366 364 364 363 367 366 366 364 365 364 360 360 358 354 350 347 347 349 348 349 347 347 347 348 348 348 349 347 347 348 346 346 349 350 350 349 349 351 349 353 350 350 360 355 354 356 357 358 358 359 360 359 359 359 359 359 358 358 359 358 357 357 358 358 357 355 355 357 356 356 356 358 358 358 357 357 357 357 357 357 357 357
371 370 367 365 363 365 365 366 367 364 363 363 361 359 357 351 352 351 351 348 347 348 347 347 347 347 347 348 347 348 349 349 348 347 348 349 348 346 350 351 354 352 357 350 353 354 355 355 354 355 356 357 357 358 359 359 359 359 359 359 359 359 357 356 357 356 357 357 358 357 357 357 357 356 356 357 358 358 358 358 358 358 357 357 357
371 369 366 363 358 362 363 365 365 363 362 361 360 358 354 352 350 352 351 350 347 346 346 346 347 347 347 345 348 346 347 348 349 349 347 347 348 348 348 348 350 353 355 355 350 353 354 357 356 355 356 356 355 356 357 358 358 357 357 358 358 359 358 357 353 352 356 357 357 356 357 357 357 357 357 356 355 357 359 359 358 358 358 358 358
369 369 365 365 362 359 362 363 363 363 362 360 358 353 352 352 351 351 352 351 348 348 347 348 347 346 345 346 348 349 349 347 349 348 347 344 344 345 344 348 348 352 355 360 356 358 357 357 356 358 359 355 356 355 356 356 356 357 358 358 358 358 358 356 354 354 355 355 354 353 353 353 356 357 357 357 356 356 356 359 358 359 358 358 358
368 367 363 362 362 363 359 363 363 361 359 355 350 350 350 351 351 351 350 350 350 346 347 346 345 346 344 346 347 348 348 347 347 348 347 344 344 344 342 345 348 348 348 351 353 352 358 360 359 357 357 356 353 353 352 352 353 354 356 357 358 357 356 356 355 354 355 355 352 349 350 351 354 356 357 357 357 356 355 356 357 358 359 359 358
366 366 363 360 363 364 363 363 362 360 357 351 352 352 353 353 352 352 349 348 346 347 347 346 343 341 344 344 345 347 346 347 345 344 343 342 341 342 342 343 344 344 347 348 349 350 352 353 352 355 357 359 358 352 351 350 351 351 352 353 354 356 356 356 356 356 355 354 352 350 350 351 354 355 356 356 356 356 356 356 357 357 358 358 358
366 367 365 364 364 361 362 362 360 354 353 354 354 351 351 350 349 346 349 346 345 344 346 345 341 336 335 337 339 343 345 344 341 342 341 340 340 341 341 337 336 340 342 344 346 346 348 350 352 352 354 353 355 359 358 357 356 351 352 353 354 354 354 355 355 354 353 354 353 352 350 350 353 355 355 355 356 356 356 356 356 356 357 358 358
368 367 361 360 360 361 359 358 355 354 353 353 352 350 349 347 348 346 342 346 345 347 348 347 337 339 340 336 332 331 340 340 340 340 337 337 337 335 335 333 336 342 343 341 341 345 344 347 351 352 353 353 353 353 356 353 354 351 351 352 351 353 353 354 354 354 354 354 355 353 351 352 353 355 354 354 355 355 355 356 355 355 356 356 357
360 359 360 360 359 358 356 354 355 356 354 351 351 350 349 348 347 348 347 341 339 341 346 347 345 341 332 332 332 330 325 334 335 337 337 334 333 332 334 334 335 340 338 336 336 342 343 345 348 349 350 350 351 350 352 351 349 349 350 350 348 348 350 353 352 352 352 353 354 354 354 353 353 354 354 354 355 355 353 354 355 355 355 356 357
359 359 358 359 359 358 356 354 354 354 354 352 349 349 350 349 349 347 346 342 338 339 344 345 344 345 339 334 331 328 328 331 330 336 336 334 332 331 333 332 333 337 336 337 341 340 339 342 345 346 346 347 347 348 350 350 350 351 349 346 344 344 343 346 348 350 351 351 351 351 352 352 353 354 354 354 354 353 354 353 353 355 355 355 355
359 358 359 358 359 357 356 354 353 354 353 350 351 349 349 348 347 347 345 346 344 337 338 344 344 345 345 342 340 333 332 335 328 329 336 334 334 331 333 331 336 336 336 337 336 336 337 338 341 341 341 342 343 344 343 343 347 348 345 344 340 340 339 340 342 345 347 347 349 350 350 351 351 352 353 353 354 354 354 354 354 354 354 355 354
358 359 359 359 358 357 357 355 354 353 353 352 350 348 347 349 349 348 346 347 345 340 338 337 343 343 344 343 343 342 340 334 329 330 326 330 331 328 329 331 329 330 331 332 332 333 335 337 337 337 339 340 340 339 340 340 340 342 338 339 338 337 336 337 339 342 343 343 343 345 347 349 350 351 351 352 352 353 354 354 355 354 354 355 355
358 360 360 360 359 357 357 355 353 352 351 350 349 348 349 350 350 349 349 348 345 342 339 338 337 337 343 342 341 342 342 338 335 333 328 325 327 328 328 328 330 328 328 329 329 333 336 334 336 336 336 338 337 336 339 338 340 340 337 338 338 336 335 335 337 339 338 339 340 342 343 344 346 347 349 351 351 352 353 353 354 354 354 355 355
359 359 360 360 358 357 357 356 355 352 352 349 347 348 349 349 349 348 347 347 346 345 343 341 340 337 339 340 340 338 337 336 337 337 331 327 324 324 327 330 329 331 330 331 332 335 334 334 334 332 335 336 337 335 335 336 337 339 336 337 337 336 335 335 336 337 335 337 337 339 340 340 342 343 345 347 349 351 352 353 353 354 354 355 355
357 358 360 360 358 358 356 356 354 349 348 347 347 347 348 349 349 348 347 346 347 345 344 343 342 341 341 340 337 336 336 334 333 333 333 330 323 322 324 325 326 329 333 330 331 333 334 334 335 335 334 334 335 334 335 335 336 335 335 335 336 336 335 334 334 335 335 335 336 336 337 337 338 340 341 343 344 346 349 350 351 352 354 354 355
356 359 358 359 359 358 356 354 351 349 348 347 347 345 345 346 347 348 347 346 345 344 343 344 343 342 341 340 338 336 335 332 332 332 331 329 328 325 325 326 327 326 332 333 334 333 334 336 334 335 336 335 333 334 334 333 333 335 334 333 335 336 335 334 334 334 334 334 334 335 335 336 337 337 338 338 339 341 342 345 348 350 352 353 354
357 355 356 353 357 355 355 352 349 348 347 349 347 346 345 345 346 347 346 346 347 345 344 343 343 342 341 337 336 337 337 334 335 336 333 332 331 328 327 330 332 332 334 337 338 335 335 334 334 334 333 333 335 334 334 335 337 333 336 334 335 336 336 334 334 334 334 334 334 334 335 335 335 335 335 335 336 337 339 341 343 346 348 350 352
355 354 353 354 354 354 353 349 347 348 349 349 347 348 347 344 346 345 344 344 343 345 342 343 342 342 338 338 337 337 336 338 336 334 335 335 334 328 328 328 326 328 332 333 332 333 334 334 337 335 333 334 333 336 337 337 336 338 334 335 341 339 338 336 335 334 334 333 334 333 333 334 333 333 333 333 334 335 336 338 340 342 343 347 349
355 355 354 354 352 353 352 350 352 350 349 349 348 348 347 346 345 344 343 344 344 344 344 343 343 343 342 338 337 336 336 338 338 337 334 334 332 330 330 330 331 327 332 334 336 332 333 335 336 340 338 335 333 334 336 335 336 339 335 333 339 339 338 337 336 336 335 334 333 333 333 333 333 332 332 332 333 333 334 335 336 339 340 341 344
356 358 358 356 355 353 352 350 349 350 348 347 346 347 347 347 345 345 344 344 345 344 343 342 341 341 342 341 339 338 337 339 337 337 337 336 335 333 331 327 326 327 328 332 332 332 330 335 335 336 338 340 338 337 338 338 338 333 333 338 340 339 337 337 337 337 335 334 333 333 334 333 332 332 332 332 332 332 332 333 334 335 337 338 338
359 359 357 356 355 352 351 350 351 349 347 347 346 345 346 345 344 344 344 344 344 344 344 343 341 342 341 342 342 337 339 338 339 339 339 339 337 336 334 332 327 324 328 327 328 329 332 330 334 337 338 338 339 339 340 337 338 337 335 339 339 340 339 337 337 337 335 334 333 333 334 333 332 332 332 332 331 332 332 332 332 333 333 334 335
359 358 357 356 355 353 351 348 349 349 346 346 345 345 346 345 344 344 343 341 345 345 342 342 342 339 340 340 340 339 339 341 341 340 342 343 341 338 338 334 331 327 324 324 326 325 329 330 328 334 338 339 338 338 339 339 339 338 339 338 338 340 338 336 335 335 335 334 333 333 333 332 332 332 332 331 331 331 331 331 331 332 332 333 334
358 356 356 354 353 352 350 348 348 348 346 345 345 344 344 342 343 343 343 345 344 345 344 342 342 341 340 340 339 337 340 339 338 340 341 343 343 344 342 340 340 332 328 325 326 330 328 331 329 328 335 338 338 338 338 339 339 338 340 340 338 339 338 335 334 334 334 333 332 331 331 331 331 331 331 331 331 331 331 331 331 331 331 332 332
357 356 354 353 351 350 350 348 347 347 346 344 344 344 344 343 342 341 343 344 342 342 343 343 341 341 340 339 339 338 340 339 339 339 341 343 345 345 345 340 337 336 332 328 324 330 333 328 330 332 333 336 336 336 337 338 338 338 340 341 340 338 339 337 335 334 333 333 332 331 330 330 330 330 331 331 331 331 331 330 331 331 331 331 332
355 355 353 351 351 349 348 346 346 346 344 343 342 343 344 344 343 340 341 343 342 341 340 340 339 340 339 338 339 338 339 339 339 339 339 342 343 342 342 340 339 338 336 331 326 326 332 330 331 334 335 336 337 336 337 336 338 341 341 340 342 339 340 339 337 336 334 333 332 331 330 329 328 329 330 331 331 331 331 331 331 331 331 331 331
354 352 351 350 349 349 348 348 347 347 346 344 343 343 344 344 343 343 343 343 341 340 340 340 339 339 339 338 338 338 340 338 338 337 336 337 338 338 341 339 337 340 337 335 328 326 330 334 332 332 334 336 334 337 336 336 336 336 337 339 340 339 339 338 338 335 334 332 331 330 329 329 328 328 329 329 330 330 330 330 331 330 330 330 331
354 351 351 348 347 348 347 348 348 347 346 346 343 342 343 343 343 342 341 342 342 340 340 340 340 339 339 339 338 338 339 338 338 336 336 334 335 333 333 334 335 336 338 333 330 326 326 330 330 334 332 333 331 337 334 334 335 337 337 337 338 338 337 337 337 337 333 333 331 330 329 328 327 327 327 328 329 330 330 330 329 328 329 330 329
354 352 350 348 348 349 348 349 348 346 346 345 344 342 342 343 343 341 340 341 340 339 338 339 339 339 338 338 337 337 338 337 337 336 336 336 336 335 334 334 334 334 335 335 332 328 327 327 331 330 331 332 331 333 336 335 337 338 337 338 338 337 337 337 336 337 335 333 331 330 329 328 327 327 327 326 326 326 326 326 326 326 327 326 326
351 352 349 348 348 350 348 346 347 346 345 345 344 341 342 344 343 341 341 341 340 339 338 339 338 338 337 337 336 336 337 336 336 335 336 336 336 336 336 337 337 336 337 337 337 335 332 328 330 330 331 331 332 335 335 336 334 335 335 336 338 337 338 337 336 337 335 332 331 329 328 328 327 326 325 324 324 324 324 323 324 324 323 324 324
350 349 349 351 350 350 348 347 346 346 344 344 342 340 343 345 344 341 341 340 340 340 340 339 338 338 337 336 336 336 336 335 335 335 336 337 338 338 337 338 337 338 338 338 337 338 335 333 332 333 333 334 334 334 336 333 333 334 335 334 334 335 336 336 336 336 334 332 331 330 329 328 328 327 326 325 324 324 323 323 323 322 322 322 320
345 346 347 349 348 348 349 346 346 346 345 343 342 343 343 344 343 342 340 339 338 339 340 339 339 339 338 337 336 336 335 334 334 335 337 337 339 340 340 340 339 338 338 338 338 337 335 334 335 331 332 330 330 332 334 334 331 330 331 332 334 334 333 332 332 332 333 333 332 333 330 331 329 327 326 326 325 324 323 323 323 322 321 319 317
343 343 345 346 346 348 348 346 345 345 344 345 346 347 345 344 344 343 340 338 336 337 338 338 338 338 337 337 337 337 336 337 336 336 337 337 338 339 341 341 342 340 338 338 337 336 335 333 333 335 331 329 329 327 331 335 334 333 330 328 328 331 332 332 330 331 332 332 332 331 330 329 329 329 326 325 325 325 324 322 322 320 320 318 317
342 342 341 344 347 347 347 346 345 345 346 347 348 348 347 346 344 343 342 339 336 337 339 339 338 337 337 336 335 335 336 337 338 338 339 339 341 340 340 340 339 338 336 333 331 329 330 332 331 329 328 326 328 330 331 333 331 329 330 327 324 326 328 331 331 330 331 332 331 331 329 329 329 329 327 327 327 325 323 324 325 325 323 320 319
342 342 343 345 345 345 347 346 346 346 347 345 345 346 346 346 345 343 341 340 339 337 337 337 338 338 339 337 335 335 336 339 343 344 344 341 342 336 336 336 335 334 333 333 331 331 331 330 329 329 325 325 326 327 326 327 327 324 328 329 328 329 328 327 329 332 332 330 330 330 330 331 329 329 329 330 331 330 328 329 330 330 327 322 320
345 343 343 344 344 343 344 345 345 344 341 341 338 333 338 345 345 344 343 342 340 337 337 338 338 337 338 338 338 339 343 343 344 342 336 333 332 336 337 336 334 333 331 330 329 330 331 329 328 326 327 325 323 326 325 327 329 329 327 328 326 325 327 326 328 330 331 330 328 328 330 330 328 328 329 328 329 331 329 330 331 328 326 323 322
345 344 343 344 342 342 343 342 342 343 342 339 330 328 328 330 340 342 341 341 341 338 338 338 338 337 338 340 342 342 345 341 341 336 334 332 331 329 327 327 330 335 333 330 329 329 327 327 327 327 326 325 325 327 327 326 327 327 328 330 328 326 325 322 320 326 333 331 328 327 328 332 331 328 329 328 328 329 329 329 326 326 324 323 323
347 346 344 344 343 343 341 340 337 340 342 329 326 326 327 326 329 339 340 340 339 337 337 336 337 338 339 338 342 346 345 343 340 342 339 333 330 330 329 328 327 326 326 333 332 329 328 326 325 325 325 325 326 327 327 327 327 330 332 331 328 326 326 323 322 321 328 332 327 325 324 330 331 328 326 327 327 328 328 326 324 323 322 322 322
346 344 344 343 343 343 340 339 338 340 342 328 325 325 325 325 326 330 338 340 339 337 337 338 336 337 342 343 345 344 344 338 335 336 338 339 335 329 329 330 328 326 324 323 324 332 332 329 328 326 327 327 328 330 331 330 332 329 330 327 327 326 324 322 322 322 326 330 326 323 321 326 328 325 323 326 328 328 327 325 323 323 322 322 322
345 342 341 342 342 343 343 344 344 343 342 327 323 322 322 323 324 327 338 339 340 339 338 338 337 341 344 345 345 343 342 341 341 340 340 340 340 341 341 337 335 333 331 323 322 321 326 331 331 329 331 333 330 332 333 332 328 326 324 322 325 324 323 322 325 325 326 327 324 323 321 322 326 324 322 325 327 327 327 325 323 322 321 321 320
344 342 342 342 342 344 343 344 342 339 337 325 321 321 320 319 321 326 333 335 335 337 339 342 341 342 343 343 340 337 341 339 341 342 342 340 339 337 334 332 331 331 331 329 328 329 332 333 332 331 329 329 329 329 330 329 328 327 325 324 324 324 324 325 325 325 325 328 328 325 317 321 324 322 322 323 326 326 328 324 323 322 321 321 321
345 343 344 343 340 342 343 342 338 332 332 324 321 320 318 318 321 329 330 330 332 335 338 340 343 343 342 339 338 337 339 339 330 326 331 337 335 332 330 330 330 330 329 332 326 327 329 329 329 327 326 326 319 325 325 324 324 325 324 325 324 324 322 319 318 321 321 324 326 322 320 319 323 320 320 324 325 324 326 326 322 321 321 321 321
344 343 343 341 342 341 340 337 332 330 331 328 319 317 316 317 322 331 332 333 336 336 336 340 341 341 340 340 338 339 338 340 324 318 319 323 329 329 329 329 329 329 328 330 325 321 322 319 317 317 316 315 315 313 312 312 320 322 323 320 318 320 318 316 317 317 317 320 321 322 319 317 321 321 321 324 324 322 324 324 325 322 322 321 321
341 340 341 339 339 339 337 332 330 332 333 330 317 315 316 317 324 334 335 335 335 334 337 337 339 343 340 337 336 337 337 337 314 316 315 322 329 329 329 328 327 327 327 327 326 328 320 317 316 316 316 316 316 314 314 313 313 315 322 318 320 319 317 316 314 315 316 317 319 321 319 317 320 321 320 321 322 322 322 323 323 323 322 322 322
336 335 334 335 336 336 334 336 333 333 332 329 317 318 317 316 326 334 334 333 332 334 336 335 337 336 338 336 335 335 335 323 311 314 314 321 329 329 329 328 325 325 326 326 324 323 324 323 324 325 326 323 327 329 328 321 318 321 326 323 322 319 316 316 315 315 313 315 320 326 319 318 319 320 319 316 315 318 321 320 321 324 325 327 328
Wind_Speed
4 4 3 3 3 3 3 2 1 2 2 2 1 2 2 2 3 4 3 3 3 3 3 5 4 3 3 4 3 4 3 4 3 3 3 4 4 6 5 2 2 3 3 4 6 8 10 13 13 12 12 11 11 10 12 13 13 12 13 13 13 12 12 12 12 13 13 13 14 14 13 13 12 12 11 11 10 11 11 10 10 10 10 10 10
4 4 3 3 3 3 3 3 2 2 3 2 2 2 2 3 3 3 3 3 3 3 4 4 4 3 3 4 4 5 2 3 3 3 3 3 2 1 7 4 2 3 2 2 5 7 9 11 14 14 13 12 11 10 9 9 11 12 12 13 13 13 13 13 13 13 13 13 14 14 15 14 14 13 12 12 12 11 11 11 11 11 10 11 11
5 4 4 4 3 4 3 3 3 2 2 3 1 2 2 2 3 4 3 4 4 2 3 3 3 3 2 4 4 4 3 3 4 4 3 2 2 3 4 6 4 3 2 2 3 6 8 9 12 13 14 13 11 11 10 10 10 10 12 12 13 13 13 13 13 13 13 13 13 14 14 14 15 14 13 13 13 12 12 12 12 11 11 11 11
5 5 5 4 4 4 4 3 3 3 3 3 3 2 3 3 2 3 4 4 3 2 2 3 3 2 3 2 4 4 4 4 5 3 2 3 2 3 3 3 8 4 3 2 3 5 7 9 10 11 13 13 13 13 13 12 12 12 11 12 13 13 13 14 14 14 14 14 14 14 14 14 15 15 15 14 13 14 13 13 13 12 12 12 12
5 5 5 5 5 5 5 4 4 3 2 1 2 2 2 2 2 2 3 4 3 2 2 4 2 2 4 3 4 3 3 4 4 4 3 3 3 2 4 3 2 10 8 6 5 4 6 10 10 10 12 13 13 14 15 14 14 13 12 12 13 14 14 14 14 15 15 15 15 15 15 15 15 15 15 15 15 15 15 14 14 13 13 12 12
5 4 5 6 6 5 5 5 3 2 2 2 3 2 2 2 3 3 3 4 2 2 3 3 3 2 3 3 3 3 3 4 3 3 3 3 3 3 3 3 3 4 4 10 7 5 4 8 11 10 10 11 12 14 15 15 15 14 13 13 13 14 15 15 15 15 15 15 15 16 16 15 15 15 15 15 15 15 15 15 15 14 14 13 13
4 4 5 5 6 6 6 5 2 2 3 1 3 3 3 3 2 4 3 3 2 2 4 4 3 3 2 3 3 3 4 4 2 4 3 2 3 2 2 3 3 3 4 4 10 8 4 5 9 10 10 10 11 13 15 15 15 15 15 14 14 14 14 14 14 13 14 15 15 15 16 16 16 16 16 16 16 15 15 15 15 15 14 14 14
5 4 5 5 6 6 6 3 2 3 2 1 2 4 2 3 3 4 2 4 3 4 4 3 3 3 2 3 2 2 3 3 3 3 3 3 2 2 1 2 3 3 3 4 4 8 7 3 5 8 10 10 11 12 13 14 16 16 15 16 16 15 14 13 11 9 9 11 14 15 16 16 17 18 17 16 16 16 16 16 15 15 14 14 14
6 6 5 6 6 6 5 4 2 3 2 3 3 3 3 3 3 3 3 3 4 5 4 3 2 3 3 3 3 2 3 2 2 2 1 2 2 1 0 1 1 2 3 3 3 3 9 7 5 5 7 8 8 9 11 13 14 15 16 14 15 16 15 14 13 12 12 13 12 13 14 14 15 15 17 17 17 15 16 16 16 15 15 14 14
6 6 5 2 7 5 5 4 4 3 3 3 4 3 4 4 3 3 3 3 4 4 5 4 3 3 3 4 2 3 1 2 1 2 1 1 0 2 1 2 3 3 3 3 3 3 2 8 8 8 7 6 5 5 7 9 12 13 15 15 16 17 15 15 8 15 17 15 13 13 13 13 13 14 15 15 16 17 15 15 15 15 15 15 14
6 6 4 4 4 5 6 6 4 4 3 4 4 4 3 3 3 3 3 4 3 4 4 4 4 3 4 2 2 2 2 1 2 1 2 2 4 4 1 2 3 3 4 3 3 2 3 2 2 4 5 7 3 4 5 7 8 9 11 14 16 17 17 14 12 17 17 15 13 13 13 15 14 14 15 15 15 16 16 15 15 15 15 15 14
6 6 5 5 6 5 6 6 5 4 4 6 5 3 3 4 4 4 5 4 4 2 4 4 4 4 3 2 2 2 1 0 1 0 1 1 2 4 4 3 3 4 4 3 4 3 3 3 2 2 1 6 4 1 2 5 6 6 7 9 11 13 14 13 16 17 17 16 11 13 13 19 18 16 15 15 15 16 16 16 16 15 15 15 15
5 5 5 6 6 6 6 5 5 4 4 3 2 2 1 2 3 3 4 4 4 3 3 4 3 4 2 2 2 2 2 1 1 1 0 0 1 1 2 2 3 3 3 3 4 4 3 3 2 2 2 2 2 5 2 0 1 2 4 6 8 8 8 10 13 15 15 15 14 19 20 19 18 17 17 16 15 16 16 17 16 16 16 16 15
6 6 6 6 6 5 5 5 4 4 3 1 0 1 2 3 2 3 3 3 3 3 2 3 4 2 2 2 2 2 1 2 2 2 0 1 1 2 1 3 5 4 3 2 2 3 3 3 4 4 3 2 2 1 1 2 6 4 5 6 6 7 7 7 8 8 9 12 18 19 19 19 19 18 18 17 16 16 16 16 16 16 17 17 16
7 7 7 7 7 6 6 5 5 3 3 3 2 2 2 2 3 3 3 3 3 2 2 4 5 1 1 4 2 3 3 2 1 2 1 1 1 3 4 5 5 3 2 3 4 4 4 4 4 4 4 3 2 2 0 1 5 6 5 7 10 10 9 8 7 7 6 8 12 17 19 18 18 18 17 16 16 16 17 16 16 17 17 18 17
6 6 5 5 6 6 4 4 4 3 2 2 2 2 2 3 3 3 3 5 4 1 1 1 4 2 4 2 2 4 3 4 2 0 1 3 2 4 3 3 5 4 4 5 5 4 4 4 4 4 3 3 3 2 2 2 3 3 6 12 11 11 11 10 9 7 6 8 7 9 13 16 18 17 19 18 17 16 17 17 17 17 18 19 18
5 5 5 5 5 5 4 5 4 3 2 2 2 3 3 4 3 3 3 3 3 2 1 2 2 3 5 3 4 5 2 3 3 3 3 4 3 4 4 2 4 4 3 4 3 3 3 5 4 3 3 3 3 3 3 4 2 3 5 11 11 10 10 10 10 9 8 8 9 8 8 11 14 17 19 19 17 17 18 15 16 17 17 19 20
5 5 5 5 5 6 6 5 4 3 2 2 2 3 3 3 2 3 2 2 4 2 3 1 3 3 3 4 3 4 5 4 4 1 4 2 3 0 1 2 3 2 2 2 3 3 3 3 3 4 4 4 4 3 3 4 4 4 5 7 9 9 9 8 8 9 9 10 10 9 7 8 9 10 12 15 17 17 16 15 17 17 17 18 20
6 7 7 6 6 6 6 4 3 2 2 2 3 4 3 2 2 2 2 1 2 3 2 3 0 3 3 3 3 3 3 4 3 2 3 1 5 3 4 2 1 0 2 1 2 3 3 3 3 3 3 3 3 3 3 4 5 5 9 8 8 9 9 9 9 9 10 11 11 10 10 10 8 8 8 9 13 15 17 16 15 16 16 17 18
7 7 8 7 7 7 6 5 4 4 3 3 3 3 1 2 2 2 1 2 2 3 3 3 3 2 0 2 1 1 2 1 2 4 4 4 4 3 3 3 2 2 4 2 2 3 1 1 1 0 1 2 2 2 3 4 3 3 5 8 7 8 8 8 8 8 9 10 10 10 11 11 10 10 9 8 9 11 13 14 15 15 16 17 17
8 8 8 8 7 7 6 6 5 4 4 4 4 3 4 3 3 3 3 2 2 2 2 2 3 2 2 1 0 1 1 1 1 2 4 3 4 2 2 1 4 3 1 1 1 1 1 2 1 2 1 1 1 1 2 2 2 2 5 7 7 7 8 7 7 7 8 9 10 10 11 11 11 10 10 10 10 9 9 11 13 14 15 16 18
8 8 8 8 8 7 7 7 6 6 5 5 4 4 4 4 4 4 3 2 1 2 2 1 2 2 1 1 1 1 1 2 2 2 2 2 4 5 4 3 3 1 2 1 3 2 2 1 2 2 1 1 1 1 1 1 2 2 4 4 5 6 6 7 7 7 7 7 8 9 10 10 11 11 10 11 11 11 11 10 10 11 13 15 18
8 7 8 9 9 8 8 7 7 6 5 4 5 5 5 4 4 3 3 3 2 3 3 2 2 2 2 2 2 3 2 3 2 3 3 3 4 5 5 4 6 5 2 2 3 2 2 2 3 2 1 3 1 1 1 1 2 3 2 0 1 3 4 5 6 7 8 8 8 8 9 10 10 10 11 11 11 12 12 12 12 12 12 13 15
8 7 8 10 9 8 8 8 6 6 6 5 5 4 4 3 3 3 3 3 3 3 3 3 4 3 4 4 4 4 3 3 3 3 3 4 4 5 5 5 5 4 2 4 4 4 3 3 3 2 3 2 2 1 1 3 2 6 4 2 2 3 4 4 5 6 7 7 8 9 9 9 10 10 11 11 11 12 12 12 13 13 14 14 14
8 8 9 10 9 8 8 7 6 6 5 5 4 4 4 3 4 4 4 4 4 4 4 5 4 4 4 3 3 3 2 3 3 4 3 3 4 5 6 6 7 6 6 5 6 4 4 5 3 3 2 3 3 2 3 3 3 5 1 4 3 4 5 5 5 6 6 6 7 9 10 10 10 10 10 11 11 12 12 13 13 13 14 15 15
9 9 8 9 9 8 8 8 7 6 6 6 5 5 5 5 5 5 6 5 5 5 5 5 4 5 4 3 4 4 4 4 4 4 5 5 6 6 7 7 8 8 6 5 4 5 5 4 4 3 3 3 4 3 4 4 5 9 3 6 6 7 5 5 6 6 6 7 8 9 10 10 11 11 10 11 12 12 13 13 14 14 14 15 16
8 9 8 8 9 8 8 8 7 7 7 6 6 6 6 6 5 6 6 5 6 5 5 6 5 5 5 4 4 4 4 4 4 5 5 6 6 7 7 8 9 9 8 6 5 6 6 6 6 6 5 4 4 5 5 6 5 4 5 6 7 5 7 7 7 7 7 7 8 9 10 11 11 11 12 11 12 12 13 14 15 15 15 15 16
8 8 8 8 9 9 9 9 8 8 7 7 7 7 7 7 6 6 7 5 5 6 6 6 7 7 6 6 6 6 5 5 6 6 6 6 6 6 6 7 8 10 8 8 6 7 8 7 4 7 7 6 5 5 6 7 7 4 8 7 6 6 7 9 8 8 8 9 9 10 10 11 11 11 12 13 13 13 13 14 15 15 16 16 16
7 7 8 8 8 8 8 8 8 8 8 8 8 7 7 7 7 7 6 6 6 6 6 6 6 7 7 7 7 6 6 6 6 6 6 6 6 6 6 7 7 8 10 10 9 8 9 8 9 6 4 6 7 7 6 7 7 7 7 8 8 8 8 8 9 9 10 10 11 10 10 10 10 12 13 13 14 14 15 15 15 15 16 17 17
7 7 8 9 9 9 8 8 8 9 8 8 8 8 8 7 7 6 6 6 6 5 6 6 6 6 7 6 6 6 5 6 6 6 6 6 7 7 6 6 5 8 8 10 10 8 9 8 9 9 6 5 6 7 7 8 8 8 9 9 9 8 8 6 9 11 12 13 12 12 12 11 11 11 12 14 14 14 15 15 16 16 17 17 18
8 8 8 8 9 9 9 9 9 9 9 8 8 8 8 7 6 6 7 6 6 7 6 6 6 6 7 7 6 6 6 7 7 6 6 6 6 6 6 5 6 7 7 8 11 8 7 9 9 10 10 9 9 9 8 8 8 9 9 9 9 10 9 11 13 14 14 14 14 13 13 13 12 12 11 12 14 15 15 16 16 17 18 17 18
8 9 9 9 9 10 10 10 10 10 10 9 9 8 8 7 6 6 6 7 7 7 7 6 6 6 6 7 7 7 7 7 6 6 6 6 6 6 6 6 6 7 7 8 9 12 9 10 9 9 11 10 9 10 10 9 7 9 9 9 10 11 10 10 13 16 17 16 15 14 14 14 14 14 13 13 14 15 17 18 17 18 18 18 18
10 11 11 11 11 11 11 10 10 9 9 9 8 8 8 8 7 6 7 7 8 8 7 7 7 7 7 7 8 8 7 8 7 7 7 7 6 6 6 6 7 6 7 8 10 10 11 9 9 9 9 10 10 9 11 10 9 9 9 10 10 10 10 10 11 12 13 16 15 15 15 15 15 15 15 15 14 16 17 19 19 18 17 19 19
10 11 10 10 11 12 11 10 9 9 9 9 9 8 8 8 8 7 7 8 8 8 7 7 7 6 6 8 8 8 8 8 7 8 7 6 6 7 6 6 7 7 6 8 9 9 11 10 11 9 10 10 11 9 10 11 11 10 10 9 9 10 9 10 10 10 12 12 15 15 15 15 16 16 16 17 16 15 17 19 20 20 19 18 20
10 10 10 11 11 11 10 9 10 10 9 9 9 8 8 9 8 7 7 7 8 8 8 8 7 7 8 7 8 8 6 7 7 7 7 7 7 8 8 7 8 8 8 8 9 10 11 10 11 12 10 10 10 10 10 10 10 10 10 9 9 9 9 10 10 10 12 9 9 12 13 15 16 17 17 17 18 18 19 19 19 20 20 20 19
8 9 9 10 10 11 11 12 12 11 10 9 8 9 9 8 7 7 7 8 8 8 8 8 7 7 8 8 8 8 7 7 6 7 6 7 8 7 8 8 8 9 9 9 9 10 10 11 10 11 10 10 9 9 9 9 10 10 9 9 10 10 10 10 11 11 10 10 11 13 15 16 17 17 17 18 19 19 20 20 20 20 20 20 21
9 9 8 9 10 11 11 12 11 11 10 9 9 10 8 7 7 7 8 8 8 9 8 8 8 8 8 8 8 8 7 7 7 7 7 8 7 8 8 8 8 8 8 8 9 9 10 12 11 9 10 10 10 10 9 10 9 10 10 10 10 10 10 11 10 10 13 14 16 18 19 18 18 18 18 19 20 21 21 21 21 21 21 21 22
12 12 14 13 12 13 13 13 11 11 10 10 10 9 8 7 7 7 8 9 9 9 9 8 8 8 8 9 9 9 8 8 8 8 7 8 8 8 9 9 9 8 9 10 9 9 10 11 11 12 9 10 10 10 10 10 10 10 9 10 10 10 11 11 11 10 10 11 10 9 11 13 16 18 19 19 20 22 22 22 22 22 22 22 23
14 13 14 13 13 13 14 13 13 12 10 8 7 7 7 7 7 7 9 9 9 8 8 9 9 9 9 9 9 9 9 9 9 8 8 8 7 9 9 9 9 9 9 9 9 10 10 11 11 11 11 10 10 11 10 10 11 10 11 11 11 9 9 11 12 10 11 12 13 15 15 15 16 16 19 20 21 20 21 22 23 23 23 23 24
17 18 17 16 14 13 12 12 12 10 10 9 7 7 7 7 7 7 8 8 9 9 9 9 10 9 10 10 10 10 10 9 9 9 8 7 7 8 7 8 8 9 10 10 10 10 10 10 10 11 11 12 10 10 10 10 10 10 9 10 12 11 11 10 11 12 11 12 12 14 14 14 14 16 17 20 22 23 24 24 24 25 25 24 24
14 13 12 13 12 12 11 11 11 10 7 7 7 7 7 7 6 7 8 9 10 11 11 10 10 10 10 10 10 10 10 9 8 5 5 4 5 7 8 8 9 10 11 10 10 10 9 10 11 11 12 11 11 10 11 11 11 12 11 10 11 11 12 13 12 11 12 13 12 13 14 13 14 15 16 16 15 18 19 18 18 21 23 24 23
10 11 13 14 14 14 13 13 13 11 9 8 9 12 7 5 5 6 7 9 12 12 11 11 11 11 11 10 10 12 8 4 4 5 7 7 6 7 8 8 10 11 11 11 10 10 10 10 11 11 12 12 12 11 12 12 12 12 12 11 13 12 12 14 13 11 11 13 13 13 13 13 14 14 14 17 17 16 15 16 16 16 16 16 17
12 13 13 15 16 16 16 15 14 11 8 8 14 11 10 6 3 5 9 10 12 12 12 11 11 10 10 10 10 10 7 6 7 9 11 11 10 10 11 11 10 9 10 11 10 10 10 11 11 11 12 13 13 12 12 13 12 12 11 10 11 13 13 14 15 11 8 11 13 14 14 12 12 14 14 15 16 16 16 17 19 17 18 19 20
11 11 13 14 15 16 15 16 14 11 9 11 12 11 10 10 9 6 8 10 11 12 11 11 10 9 10 10 10 6 7 6 5 8 11 12 11 11 11 11 12 12 13 11 10 10 11 11 11 11 12 12 13 12 12 12 12 11 10 11 12 12 12 13 13 14 11 12 14 16 17 11 12 14 15 14 15 15 17 18 20 20 20 22 22
10 12 13 13 12 12 12 13 13 12 9 11 13 13 12 12 9 8 7 10 12 12 12 11 12 11 9 9 8 7 6 8 9 10 9 8 11 12 11 10 12 15 15 16 15 11 9 9 10 11 10 11 11 11 11 12 11 13 11 11 12 12 13 15 14 15 12 12 14 17 19 14 12 15 17 15 15 16 17 18 19 21 22 23 23
12 13 14 15 13 13 12 11 9 9 9 11 12 12 11 9 9 8 6 9 10 12 12 11 11 10 9 8 8 8 7 7 6 7 7 7 6 6 8 9 10 12 16 17 15 15 12 9 9 10 9 9 10 11 12 13 13 12 12 13 13 14 15 15 15 15 14 13 15 15 18 17 15 16 16 15 14 16 18 20 21 22 23 25 25
13 14 14 13 13 11 10 9 9 8 7 9 12 11 9 8 7 5 4 6 9 10 10 10 11 10 9 4 7 10 7 6 4 3 6 5 5 6 8 9 10 11 11 10 9 7 7 9 9 10 11 11 11 12 11 11 12 13 12 13 14 14 14 15 15 15 14 14 15 15 19 16 14 16 15 15 16 17 17 17 21 22 24 24 25
10 10 10 10 13 11 10 10 9 9 8 8 9 9 8 8 7 3 5 6 8 10 11 12 8 8 4 5 7 9 9 7 6 5 3 3 5 7 9 10 10 10 9 6 4 3 8 9 9 11 12 12 12 13 12 11 12 12 11 10 11 12 13 13 14 13 14 13 14 15 15 16 14 15 16 15 17 19 16 16 20 22 23 25 26
12 13 15 14 12 11 11 10 10 9 10 12 13 10 9 7 5 4 5 6 7 10 10 8 10 9 5 6 7 8 7 4 8 7 5 0 6 7 9 9 8 9 8 7 9 10 8 7 9 11 14 15 16 16 16 16 12 11 10 11 12 12 13 13 13 15 15 13 11 12 14 15 13 14 16 16 17 17 16 16 16 20 21 23 25
8 9 8 8 9 10 10 10 11 11 10 10 13 11 10 10 7 4 3 3 6 8 8 8 9 3 4 7 7 7 7 3 9 7 5 3 6 7 8 8 9 8 8 7 7 4 11 11 13 15 16 15 16 17 17 17 17 12 10 12 13 13 13 13 15 16 16 15 14 11 11 13 14 13 15 17 16 13 13 14 17 18 21 22 24
7 7 7 6 6 7 8 9 10 11 9 9 13 9 8 10 6 3 3 4 6 8 7 8 5 7 5 7 11 5 3 8 9 7 4 5 6 7 6 7 8 9 8 9 9 11 11 11 10 10 10 11 11 10 11 15 19 16 12 12 11 12 14 14 15 16 18 14 11 7 10 13 13 12 14 14 15 14 10 13 12 15 17 17 18
Wind_Direction
255 256 264 272 278 276 275 273 287 286 281 275 288 308 295 315 325 316 313 301 294 292 317 305 286 284 302 311 298 285 276 290 298 296 285 301 280 122 126 165 212 253 258 247 224 212 206 197 202 204 208 211 214 219 221 218 215 213 212 214 214 211 211 212 214 213 210 206 201 201 204 214 217 222 222 224 225 224 222 225 230 234 237 244 245
260 265 262 262 269 266 261 262 277 284 270 277 292 285 301 311 316 310 305 298 307 322 301 312 309 333 319 321 307 302 314 281 284 281 301 270 272 140 145 158 212 248 268 269 215 214 211 213 214 215 213 212 214 219 228 232 228 222 217 216 219 219 219 218 218 221 220 215 211 207 205 206 208 215 219 223 228 231 230 229 230 233 238 242 246
264 270 267 261 260 262 264 271 266 274 278 285 290 298 309 315 325 312 307 297 296 307 296 312 313 295 343 313 311 305 300 292 282 243 248 244 281 282 189 173 188 220 269 263 237 224 224 219 220 218 218 216 213 218 222 224 225 233 230 223 222 223 224 224 223 223 226 227 224 217 212 209 206 205 211 217 223 229 233 234 234 235 237 242 245
263 266 268 270 268 269 267 265 272 265 277 295 298 303 295 304 305 302 297 290 296 282 308 292 314 335 313 284 313 308 311 312 287 314 295 268 257 255 271 201 173 182 196 260 251 241 230 230 227 224 220 217 213 217 218 221 224 226 233 234 229 228 227 226 225 226 227 230 233 230 223 219 214 208 208 209 214 221 227 232 236 237 237 239 243
262 268 275 274 275 276 273 267 263 268 277 304 292 280 287 267 265 272 282 288 286 306 262 286 317 342 312 356 318 314 309 290 283 272 306 300 221 242 263 265 243 170 178 188 212 227 226 220 222 224 224 221 220 219 220 220 223 226 230 233 236 234 233 230 228 227 228 230 232 236 235 229 224 219 215 209 210 215 220 224 229 234 237 238 242
260 268 277 279 274 267 270 270 270 277 268 257 267 285 284 283 284 280 285 282 306 311 307 314 322 324 324 338 296 328 311 287 304 313 290 278 335 273 251 251 234 249 183 176 190 203 225 218 215 219 222 226 228 229 223 223 223 227 230 234 237 238 236 234 232 231 231 231 232 233 237 237 233 228 224 218 217 216 218 223 225 227 232 235 240
247 264 272 278 274 265 262 257 249 252 265 250 291 283 273 274 290 289 300 287 294 316 294 313 317 301 311 316 311 324 298 298 319 298 273 318 294 297 300 266 254 245 230 217 170 186 200 207 210 216 223 229 229 231 229 224 226 227 226 232 236 239 240 241 241 240 238 235 235 235 236 239 239 236 231 227 223 220 221 223 225 227 228 232 236
240 246 257 256 261 264 254 253 234 260 267 270 265 266 272 285 288 283 270 298 314 292 292 299 300 303 320 291 294 295 282 300 303 281 359 325 322 330 311 315 299 295 326 270 247 151 169 197 218 220 226 230 233 234 231 228 226 225 226 228 231 233 236 238 238 236 238 239 241 238 237 237 238 238 236 233 230 225 224 225 224 226 228 231 234
230 229 232 239 254 259 263 249 239 248 239 244 252 260 266 261 265 271 296 293 288 294 297 297 304 301 284 284 306 293 281 298 281 334 19 294 282 178 38 30 360 276 241 259 266 189 161 176 203 236 228 231 238 241 237 235 229 231 229 230 234 236 236 234 236 239 234 237 238 243 246 246 242 241 244 240 233 230 228 227 227 225 225 228 231
229 222 230 202 255 247 256 248 234 234 233 237 250 261 260 265 262 248 276 300 295 309 309 317 321 305 306 304 301 285 294 271 327 292 272 259 104 345 21 4 11 25 360 351 337 317 190 167 180 202 221 237 250 257 255 250 241 239 245 236 234 240 243 242 236 250 247 236 233 239 247 249 248 242 238 245 249 243 232 230 230 229 227 226 228
234 227 225 200 226 234 235 229 236 225 223 225 237 253 263 255 257 256 247 264 293 292 309 309 298 276 277 285 262 244 285 326 292 333 323 6 12 306 49 39 24 37 28 23 47 30 352 331 228 213 189 192 249 277 273 263 259 253 249 254 249 243 242 242 231 238 245 249 254 258 255 258 253 251 245 237 239 246 250 241 235 233 232 229 229
234 227 178 207 228 230 254 227 217 218 221 243 241 228 238 259 253 259 264 259 237 271 265 281 293 293 290 264 205 173 240 327 267 246 264 21 31 331 358 43 33 24 25 29 19 40 33 27 10 353 34 141 132 111 28 354 352 350 323 299 280 268 259 242 231 236 240 245 245 256 254 251 250 247 246 239 235 238 242 248 243 238 234 232 233
225 226 202 219 230 234 223 212 214 216 237 239 250 314 348 299 292 269 279 278 259 230 244 268 291 269 220 234 149 194 171 143 246 224 301 67 27 14 8 13 42 20 49 23 22 29 21 18 9 23 36 358 147 139 119 75 327 345 329 321 317 315 308 289 264 247 241 245 229 229 234 240 246 245 245 240 234 236 240 244 246 241 238 237 235
210 214 215 217 222 222 213 210 204 208 208 156 86 198 229 244 256 264 235 269 276 281 308 266 240 292 294 195 156 163 276 201 207 329 257 341 115 107 73 43 24 19 19 46 49 43 40 39 11 13 6 335 342 50 94 194 147 59 5 353 347 332 315 311 309 299 275 243 234 238 240 245 251 249 247 246 242 240 240 241 245 247 244 239 237
207 208 220 219 223 215 208 204 200 165 171 187 201 214 227 244 238 253 255 221 271 281 274 260 304 357 312 272 201 230 174 246 204 222 330 80 24 62 29 46 55 35 5 35 40 43 44 38 31 21 15 2 4 10 169 115 49 25 42 34 25 14 3 353 343 330 299 263 246 245 244 242 245 249 248 248 247 248 246 243 241 243 246 245 239
226 227 230 236 228 222 212 185 174 168 191 207 202 221 197 220 226 226 265 280 238 212 258 263 297 304 243 270 328 299 249 187 165 269 316 22 33 63 72 79 73 38 34 27 38 34 50 41 45 35 28 19 4 14 44 6 90 124 75 42 32 19 12 7 355 345 328 317 292 263 245 244 245 249 250 246 246 251 255 250 242 241 244 245 242
232 223 224 226 226 216 200 185 181 180 178 213 223 226 215 221 223 231 235 284 298 286 235 294 293 301 314 277 237 214 277 103 269 163 246 209 107 107 103 100 66 53 41 42 36 29 38 58 41 54 43 37 32 15 35 37 44 44 72 46 37 29 23 11 3 2 352 336 314 298 282 256 248 248 251 249 247 242 243 241 250 246 245 249 248
216 216 214 216 210 207 197 196 193 187 195 235 239 245 234 247 207 246 240 232 290 297 287 213 289 287 278 288 325 347 338 20 292 174 288 280 150 332 20 41 91 84 57 63 51 43 37 52 56 64 50 50 40 39 30 47 36 52 34 43 38 38 31 19 11 3 1 3 359 358 332 303 287 278 265 256 251 249 247 242 242 244 244 245 248
207 207 209 206 206 202 197 204 200 206 208 226 228 233 221 213 218 220 245 230 230 271 269 258 235 278 267 289 310 319 350 320 325 318 216 147 319 259 132 112 342 131 119 63 81 46 39 37 42 46 67 51 57 53 54 64 74 78 63 37 40 36 30 23 13 10 9 5 3 358 355 352 340 317 300 281 264 258 257 252 245 243 242 243 247
213 203 205 199 199 198 199 204 203 223 214 220 239 247 254 213 217 219 215 206 218 255 280 307 279 258 45 285 240 17 4 338 342 339 326 300 175 246 213 136 180 24 348 1 37 65 53 30 50 355 74 81 67 53 69 69 52 52 49 23 26 27 28 22 17 11 11 5 2 358 356 354 349 343 335 313 296 277 265 257 254 246 243 243 245
215 209 205 202 197 199 199 202 207 217 215 224 223 209 213 219 210 202 205 204 220 247 256 272 268 240 178 210 294 237 203 278 70 262 307 299 271 223 258 304 272 160 58 303 45 136 253 136 302 296 270 145 120 82 69 70 64 59 44 13 3 6 11 13 8 8 9 2 358 356 354 351 350 345 340 336 329 316 296 281 269 262 254 248 246
215 214 206 206 200 198 202 207 212 221 216 225 221 223 213 220 213 219 222 225 199 223 244 245 264 334 147 172 190 47 308 277 260 253 237 257 292 299 285 259 248 225 219 250 10 308 320 349 246 227 261 270 227 149 111 97 76 39 37 355 351 340 352 354 350 352 357 350 351 352 349 348 346 343 340 337 332 325 320 311 299 280 269 260 256
213 203 213 209 202 202 205 209 223 222 217 226 222 223 207 205 213 200 205 222 204 212 230 228 227 225 199 187 203 217 235 270 279 291 283 264 272 284 288 323 334 319 259 324 319 289 260 258 272 241 260 255 242 238 227 341 185 81 294 143 310 307 314 329 331 333 337 337 338 340 340 340 340 338 336 334 329 324 319 313 306 300 289 276 267
217 210 210 211 208 211 216 220 221 221 218 219 227 222 238 194 196 190 198 206 208 225 236 228 223 210 234 203 207 233 208 234 249 228 250 282 300 291 294 290 274 272 285 241 233 264 263 257 255 286 253 270 257 292 277 259 136 117 311 23 254 234 252 276 299 308 315 321 322 323 326 327 329 330 328 326 323 320 316 311 307 303 297 293 285
210 216 212 214 205 211 214 219 216 218 219 217 218 228 236 218 192 200 205 202 211 216 220 224 219 226 223 237 241 261 241 225 256 268 259 266 264 278 284 305 296 286 279 296 296 286 287 279 237 230 276 254 247 237 273 262 290 124 250 307 246 240 216 232 257 273 289 298 302 308 312 313 314 318 318 315 315 313 311 309 306 303 300 295 291
220 217 212 204 205 206 211 214 212 208 212 217 219 212 214 218 202 209 207 210 219 216 230 232 231 226 234 250 240 232 252 252 252 251 258 256 264 273 295 293 291 292 287 257 248 274 263 230 242 265 261 250 259 246 248 279 277 146 213 297 275 204 220 246 261 258 258 281 293 295 297 301 304 307 308 306 307 309 307 307 304 302 300 298 295
221 216 199 193 198 202 206 212 203 204 208 211 210 208 206 210 215 209 221 206 216 225 230 238 237 241 241 245 262 271 272 268 273 276 275 281 285 288 292 297 298 301 307 305 290 257 274 279 281 266 256 248 249 250 255 265 284 270 241 272 289 205 208 234 241 252 264 276 285 287 285 289 293 295 296 298 298 300 303 301 302 300 298 297 295
220 199 189 189 194 196 203 205 198 200 206 207 208 208 202 209 212 212 220 210 219 225 239 243 244 247 254 256 254 266 271 270 271 270 271 277 280 281 281 282 293 296 296 294 285 280 292 294 256 236 256 270 264 263 260 260 273 260 225 263 277 276 213 207 231 242 258 272 276 277 277 280 285 285 285 289 292 292 294 296 295 296 294 293 293
193 189 189 188 192 200 200 201 197 203 204 202 206 213 206 210 210 213 219 223 219 234 245 248 257 257 249 245 259 262 264 271 274 274 275 275 270 270 270 278 288 288 294 295 293 298 305 311 308 312 270 259 277 285 276 272 276 270 280 285 280 272 266 200 214 240 261 268 267 263 263 269 273 279 282 282 284 286 287 288 288 287 288 287 287
192 188 190 193 193 197 201 203 201 204 206 200 203 208 208 213 213 214 219 229 230 231 240 254 258 262 268 274 266 264 261 263 264 266 265 264 264 264 270 264 264 278 291 296 296 296 297 294 289 297 299 269 256 262 265 272 275 264 270 276 276 274 273 227 234 244 253 256 257 255 256 257 261 264 269 276 280 281 279 279 281 281 281 281 281
187 188 190 195 198 196 202 203 203 204 204 205 200 205 205 213 213 216 218 227 236 238 238 240 250 254 257 261 262 265 271 272 274 272 268 263 264 266 267 266 262 259 277 283 291 289 293 292 291 290 291 292 293 293 288 279 274 263 265 271 273 274 268 261 249 246 243 242 245 248 250 252 251 252 255 261 270 275 276 274 273 276 276 275 276
187 186 190 199 202 203 202 206 204 204 203 205 202 204 206 213 218 223 224 219 230 237 242 240 243 244 248 249 252 260 264 267 270 271 273 269 266 270 271 271 264 263 262 269 276 288 292 293 292 286 282 288 291 287 283 282 271 245 262 264 271 275 268 269 252 231 233 233 232 236 244 246 247 248 248 250 254 263 269 272 270 269 272 272 271
187 188 190 193 200 206 209 205 207 205 206 209 206 204 207 213 219 233 252 245 240 243 237 239 239 242 243 248 252 256 261 264 264 269 267 258 258 268 268 262 264 262 262 266 276 281 288 289 290 288 290 289 281 278 282 282 283 281 265 263 264 264 268 270 277 266 229 222 225 229 235 241 244 247 250 251 249 253 260 266 269 266 265 267 267
184 188 196 196 197 200 205 207 212 212 209 215 216 210 209 213 219 226 237 239 244 244 246 242 236 240 243 248 253 257 253 256 264 263 260 272 278 269 261 259 261 266 259 268 270 278 283 291 289 292 287 284 284 277 279 282 284 286 281 274 271 273 272 269 273 275 266 228 224 229 232 236 245 250 251 253 252 252 254 259 264 267 264 262 265
188 195 197 203 202 200 198 193 207 214 212 217 221 222 215 217 224 230 237 241 239 241 239 240 242 242 248 253 255 254 255 254 249 257 267 276 280 280 281 278 270 268 268 259 267 273 279 281 289 292 289 291 287 289 284 283 278 277 279 278 278 278 277 279 277 277 276 273 240 234 240 247 250 255 257 256 258 258 259 260 261 262 264 263 260
187 191 198 204 203 200 194 204 197 202 203 211 220 224 221 220 224 231 241 243 241 240 244 250 248 247 252 255 256 259 260 258 255 262 273 274 271 273 274 269 264 266 267 264 255 264 273 284 281 286 292 292 288 283 279 273 274 274 278 280 275 276 281 284 285 281 282 275 260 246 245 250 254 254 256 259 259 258 257 256 256 257 258 259 258
198 189 188 198 196 197 199 205 203 203 197 197 214 224 221 220 223 230 235 239 241 241 242 245 250 258 261 260 260 259 255 255 257 259 263 268 268 270 274 275 271 269 268 265 266 262 269 275 282 282 286 283 286 283 278 278 276 272 270 273 277 277 281 283 281 279 267 249 243 245 248 249 251 253 252 251 254 254 253 252 252 252 252 253 254
190 188 190 194 194 200 201 200 198 203 199 198 202 210 217 216 220 231 236 239 242 244 243 245 248 250 252 253 253 251 253 253 260 265 273 278 275 273 275 274 274 272 267 269 267 265 267 272 276 283 279 284 287 287 287 279 281 285 281 279 277 279 283 283 283 286 291 289 290 268 252 240 237 238 245 247 246 248 249 250 251 249 249 251 251
194 195 198 189 191 197 195 193 190 190 197 193 186 190 206 219 224 230 237 240 243 247 247 248 252 251 250 248 247 249 251 252 259 266 272 274 276 277 273 274 276 278 279 277 276 275 271 273 271 270 280 281 282 286 285 284 282 281 286 290 287 288 283 287 289 290 289 288 283 271 261 265 273 275 269 259 252 247 248 251 252 251 251 251 252
197 194 194 185 183 185 187 186 183 187 186 174 171 185 193 204 218 228 238 244 249 248 249 251 253 257 253 248 247 247 247 248 255 265 268 271 281 281 281 283 284 284 283 283 282 281 279 276 272 279 285 291 288 281 280 277 275 279 279 293 295 295 293 292 291 293 292 286 282 284 282 274 260 254 250 249 249 248 248 252 253 253 253 251 249
197 196 186 176 177 179 179 178 178 179 169 166 176 179 191 197 208 230 240 248 251 251 252 255 253 253 255 257 258 258 260 259 239 256 288 333 289 280 284 282 285 289 291 291 292 290 285 282 283 284 287 288 289 291 288 287 290 298 302 296 292 293 294 294 291 290 289 287 283 280 280 283 288 287 287 287 286 282 272 255 256 249 244 244 244
183 184 187 179 175 180 182 183 187 182 185 178 179 183 177 171 200 234 250 255 259 257 255 255 256 254 256 257 252 256 257 224 192 220 242 246 236 254 270 276 283 286 287 291 290 290 290 287 288 295 295 293 294 294 295 293 295 296 294 295 293 299 299 295 291 286 286 287 287 284 283 285 284 283 282 286 287 282 284 281 280 284 285 277 266
192 189 186 181 186 184 184 186 189 187 183 184 172 164 184 176 185 257 270 271 267 262 255 251 253 256 260 261 263 248 196 202 219 224 228 223 228 229 239 255 265 273 284 285 285 286 288 289 289 289 291 293 295 296 296 296 297 302 303 301 297 299 298 298 297 298 280 290 291 292 285 281 282 279 281 283 288 284 281 279 281 277 271 266 266
194 188 191 189 187 186 188 190 188 185 188 167 172 172 163 175 193 224 257 264 267 267 261 255 253 258 257 259 257 239 231 213 227 229 219 220 224 227 234 242 248 247 247 258 273 280 285 289 288 289 292 289 293 295 295 298 304 306 302 298 296 298 295 293 295 292 299 302 298 292 287 283 283 280 283 283 281 277 277 279 278 271 269 269 267
186 190 194 190 189 187 186 186 186 183 187 168 171 178 189 191 184 194 236 258 265 264 263 256 257 255 256 254 246 232 232 209 231 243 254 237 205 213 226 226 235 242 241 232 236 253 283 280 284 286 286 292 290 289 295 302 303 296 299 296 298 296 294 292 289 293 299 308 296 286 286 288 290 288 287 281 278 281 284 280 280 281 275 270 267
190 195 198 194 186 185 180 177 172 174 174 165 175 190 200 185 182 198 240 257 261 258 256 258 260 259 254 248 244 249 251 239 231 240 245 247 262 232 221 237 247 238 222 223 225 227 238 265 277 282 281 282 283 289 294 297 297 300 301 297 299 295 293 290 293 291 291 285 276 281 282 286 290 290 283 281 280 283 282 284 281 274 274 274 270
193 193 194 190 190 176 162 165 172 168 174 159 194 196 184 179 196 209 232 252 265 272 267 260 254 256 260 285 298 275 268 258 253 252 244 261 259 261 273 279 281 288 293 284 268 259 245 255 273 281 289 285 287 297 304 308 307 301 298 296 291 289 288 287 282 277 267 254 255 267 284 294 298 292 285 288 287 286 287 282 275 274 275 275 272
197 192 192 186 181 164 164 164 159 168 181 175 206 185 174 181 169 172 202 227 252 261 263 257 257 258 222 212 236 268 262 252 105 90 56 299 268 269 269 274 282 286 288 290 126 250 276 291 291 290 296 305 307 294 291 295 297 295 290 283 283 282 282 278 282 284 282 284 285 283 284 291 295 288 288 288 289 290 287 285 285 283 282 280 274
191 194 193 179 158 157 164 164 166 179 195 182 182 181 181 176 148 197 204 230 245 258 265 282 274 248 218 210 218 235 241 231 124 112 111 358 262 267 273 280 285 289 287 288 183 205 225 224 243 255 258 260 265 271 269 264 257 269 288 288 280 280 282 286 287 288 288 292 285 280 290 292 287 288 290 293 295 294 286 285 286 284 281 277 271
195 192 165 163 160 158 160 170 183 193 202 168 176 183 185 174 166 177 202 241 270 277 277 272 264 290 274 256 251 254 249 150 125 119 133 200 259 266 273 278 287 285 284 290 297 224 189 215 233 241 246 252 258 261 264 263 258 242 250 271 286 292 289 287 288 292 293 290 285 286 282 278 288 290 295 299 296 276 278 281 284 284 279 274 268
125 127 133 128 143 168 173 182 184 199 204 178 180 178 131 110 130 176 191 235 261 275 285 271 259 241 228 208 214 259 37 104 124 128 175 230 258 265 279 285 279 282 285 301 299 298 301 297 289 278 267 256 258 268 270 248 239 233 232 255 274 278 285 290 292 295 293 288 294 298 284 286 291 295 304 304 297 286 259 267 272 283 287 285 283